URO67B EGHH-EDDV

Flight info

Callsign URO67B
Flight time 1h 21m
Altitude 41000
Route OCK UM185 KOBBI M197 REDFA DCT TACHA DCT PAM DCT ATPAQ T463 NIE
Aircraft A346/H-SDE2E3FGHIJ3J4J5M1RWXY/LB1D1

Departure

Time 2026-05-08 17:53
Airport Bournemouth Airport (EGHH)

Arrival

Time 2026-05-08 19:15
Airport Hannover Airport (EDDV)
Time Latitude Longitude Altitude Speed Heading
2026-05-08 17:44 50.78691 -1.84157 47 ft 0 kts 166°
2026-05-08 17:47 50.78651 -1.84141 47 ft 12 kts 166°
2026-05-08 17:47 50.78553 -1.84100 52 ft 17 kts 165°
2026-05-08 17:47 50.78470 -1.84066 52 ft 20 kts 165°
2026-05-08 17:48 50.78268 -1.83982 48 ft 25 kts 165°
2026-05-08 17:48 50.78158 -1.83937 48 ft 16 kts 165°
2026-05-08 17:48 50.78091 -1.83909 49 ft 10 kts 171°
2026-05-08 17:48 50.78053 -1.83977 51 ft 11 kts 253°
2026-05-08 17:49 50.78020 -1.84163 51 ft 29 kts 255°
2026-05-08 17:49 50.77966 -1.84491 51 ft 32 kts 255°
2026-05-08 17:49 50.77910 -1.84832 50 ft 28 kts 255°
2026-05-08 17:49 50.77864 -1.85114 54 ft 20 kts 255°
2026-05-08 17:50 50.77824 -1.85356 50 ft 25 kts 255°
2026-05-08 17:50 50.77782 -1.85603 52 ft 17 kts 253°
2026-05-08 17:50 50.77729 -1.85702 50 ft 8 kts 221°
2026-05-08 17:50 50.77729 -1.85766 47 ft 4 kts 334°
2026-05-08 17:51 50.77750 -1.85750 48 ft 6 kts 55°
2026-05-08 17:51 50.77774 -1.85660 50 ft 0 kts 75°
2026-05-08 17:52 50.77885 -1.84983 53 ft 102 kts 75°
2026-05-08 17:53 50.78124 -1.83536 126 ft 160 kts 79°
2026-05-08 17:53 50.78228 -1.82831 456 ft 159 kts 80°
2026-05-08 17:53 50.78275 -1.82499 645 ft 158 kts 81°
2026-05-08 17:54 50.78533 -1.80825 1528 ft 158 kts 79°
2026-05-08 17:54 50.78926 -1.79162 2290 ft 168 kts 66°
2026-05-08 17:54 50.79610 -1.77538 2880 ft 187 kts 56°
2026-05-08 17:54 50.80393 -1.75807 3409 ft 201 kts 59°
2026-05-08 17:55 50.81191 -1.73891 3845 ft 217 kts 60°
2026-05-08 17:55 50.82030 -1.71798 4233 ft 235 kts 60°
2026-05-08 17:55 50.82938 -1.69509 4590 ft 255 kts 60°
2026-05-08 17:55 50.83908 -1.67052 5146 ft 269 kts 60°
2026-05-08 17:56 50.84906 -1.64508 5926 ft 274 kts 60°
2026-05-08 17:56 50.85920 -1.61919 6860 ft 280 kts 60°
2026-05-08 17:56 50.86954 -1.59277 7972 ft 284 kts 60°
2026-05-08 17:56 50.87996 -1.56593 9144 ft 288 kts 60°
2026-05-08 17:57 50.89052 -1.53870 10273 ft 293 kts 60°
2026-05-08 17:57 50.90141 -1.51060 11142 ft 307 kts 60°
2026-05-08 17:57 50.91291 -1.48078 11870 ft 326 kts 59°
2026-05-08 17:57 50.92516 -1.44912 12591 ft 346 kts 60°
2026-05-08 17:58 50.93809 -1.41565 13370 ft 363 kts 59°
2026-05-08 17:58 50.95146 -1.38097 14373 ft 370 kts 59°
2026-05-08 17:58 50.96505 -1.34586 15384 ft 376 kts 59°
2026-05-08 17:58 50.97878 -1.31027 16442 ft 380 kts 59°
2026-05-08 17:59 50.99268 -1.27415 17479 ft 386 kts 60°
2026-05-08 17:59 51.00678 -1.23741 18464 ft 392 kts 60°
2026-05-08 17:59 51.02105 -1.20007 19313 ft 398 kts 60°
2026-05-08 17:59 51.03555 -1.16205 20161 ft 404 kts 60°
2026-05-08 18:00 51.05024 -1.12351 21010 ft 410 kts 59°
2026-05-08 18:00 51.08025 -1.04469 22710 ft 422 kts 59°
2026-05-08 18:00 51.09555 -1.00442 23550 ft 428 kts 59°
2026-05-08 18:01 51.11110 -0.96347 24273 ft 434 kts 58°
2026-05-08 18:01 51.12685 -0.92187 24977 ft 439 kts 58°
2026-05-08 18:01 51.14267 -0.88000 25717 ft 443 kts 58°
2026-05-08 18:01 51.15868 -0.83767 26419 ft 449 kts 57°
2026-05-08 18:02 51.17492 -0.79468 27088 ft 455 kts 57°
2026-05-08 18:02 51.19135 -0.75113 27760 ft 461 kts 57°
2026-05-08 18:02 51.20791 -0.70709 28424 ft 466 kts 57°
2026-05-08 18:02 51.22470 -0.66235 29075 ft 472 kts 57°
2026-05-08 18:03 51.24163 -0.61712 29717 ft 477 kts 57°
2026-05-08 18:03 51.25898 -0.57141 30311 ft 482 kts 55°
2026-05-08 18:03 51.27852 -0.52767 30859 ft 485 kts 49°
2026-05-08 18:03 51.30106 -0.48651 31481 ft 485 kts 43°
2026-05-08 18:04 51.32558 -0.44997 32322 ft 479 kts 37°
2026-05-08 18:04 51.35191 -0.41779 33264 ft 472 kts 31°
2026-05-08 18:04 51.37959 -0.39026 34145 ft 466 kts 25°
2026-05-08 18:04 51.40833 -0.36688 34862 ft 462 kts 21°
2026-05-08 18:05 51.43738 -0.34503 35497 ft 461 kts 21°
2026-05-08 18:05 51.46649 -0.32344 36097 ft 461 kts 21°
2026-05-08 18:05 51.49575 -0.30160 36673 ft 462 kts 21°
2026-05-08 18:05 51.52484 -0.27964 37249 ft 462 kts 21°
2026-05-08 18:06 51.55385 -0.25755 37810 ft 461 kts 22°
2026-05-08 18:06 51.58244 -0.23570 38363 ft 461 kts 22°
2026-05-08 18:06 51.61110 -0.21231 38878 ft 464 kts 27°
2026-05-08 18:06 51.63779 -0.18270 39221 ft 468 kts 36°
2026-05-08 18:07 51.66167 -0.14677 39534 ft 472 kts 45°
2026-05-08 18:07 51.68173 -0.10621 39798 ft 477 kts 54°
2026-05-08 18:07 51.69888 -0.05817 40067 ft 481 kts 64°
2026-05-08 18:07 51.71096 -0.00777 40318 ft 484 kts 73°
2026-05-08 18:08 51.71965 0.04502 40592 ft 485 kts 75°
2026-05-08 18:08 51.72758 0.09821 40894 ft 486 kts 76°
2026-05-08 18:08 51.73542 0.15155 41077 ft 488 kts 76°
2026-05-08 18:08 51.74337 0.20492 41074 ft 489 kts 76°
2026-05-08 18:09 51.75954 0.31175 41080 ft 490 kts 76°
2026-05-08 18:09 51.77584 0.41865 41081 ft 490 kts 76°
2026-05-08 18:10 51.79208 0.52566 41079 ft 489 kts 76°
2026-05-08 18:10 51.80817 0.63248 41091 ft 489 kts 76°
2026-05-08 18:11 51.82451 0.73930 41080 ft 489 kts 75°
2026-05-08 18:11 51.84177 0.84577 41086 ft 488 kts 73°
2026-05-08 18:12 51.86102 0.95155 41087 ft 488 kts 72°
2026-05-08 18:12 51.88023 1.05685 41092 ft 487 kts 73°
2026-05-08 18:13 51.89925 1.16211 41096 ft 486 kts 73°
2026-05-08 18:13 51.91815 1.26748 41100 ft 486 kts 73°
2026-05-08 18:14 51.93695 1.37291 41099 ft 486 kts 73°
2026-05-08 18:14 51.95563 1.47833 41100 ft 486 kts 73°
2026-05-08 18:15 51.97422 1.58389 41099 ft 486 kts 73°
2026-05-08 18:15 51.99268 1.68948 41104 ft 486 kts 74°
2026-05-08 18:16 52.00953 1.79587 41102 ft 486 kts 75°
2026-05-08 18:16 52.02583 1.90249 41103 ft 486 kts 75°
2026-05-08 18:17 52.04218 2.00933 41107 ft 486 kts 75°
2026-05-08 18:17 52.05851 2.11611 41105 ft 486 kts 75°
2026-05-08 18:18 52.07464 2.22221 41110 ft 486 kts 75°
2026-05-08 18:18 52.09078 2.32910 41109 ft 486 kts 75°
2026-05-08 18:19 52.10681 2.43610 41107 ft 486 kts 76°
2026-05-08 18:19 52.12479 2.54241 41108 ft 487 kts 72°
2026-05-08 18:20 52.14491 2.64781 41110 ft 487 kts 72°
2026-05-08 18:20 52.16507 2.75356 41111 ft 487 kts 72°
2026-05-08 18:21 52.18503 2.85926 41111 ft 487 kts 72°
2026-05-08 18:21 52.20485 2.96496 41110 ft 487 kts 72°
2026-05-08 18:22 52.22464 3.07118 41109 ft 488 kts 72°
2026-05-08 18:22 52.24393 3.17763 41115 ft 489 kts 75°
2026-05-08 18:23 52.25741 3.28652 41112 ft 490 kts 82°
2026-05-08 18:23 52.26405 3.39742 41113 ft 490 kts 85°
2026-05-08 18:24 52.26926 3.50843 41114 ft 490 kts 85°
2026-05-08 18:24 52.27444 3.61968 41106 ft 491 kts 85°
2026-05-08 18:25 52.27961 3.73104 41114 ft 491 kts 85°
2026-05-08 18:25 52.28470 3.84228 41112 ft 491 kts 85°
2026-05-08 18:26 52.28969 3.95359 41106 ft 491 kts 85°
2026-05-08 18:26 52.29458 4.06514 41100 ft 491 kts 85°
2026-05-08 18:27 52.29857 4.15775 41095 ft 491 kts 85°
2026-05-08 18:27 52.30409 4.28903 41098 ft 491 kts 86°
2026-05-08 18:28 52.30866 4.40055 41097 ft 491 kts 86°
2026-05-08 18:28 52.31314 4.51210 41092 ft 491 kts 86°
2026-05-08 18:29 52.31750 4.62366 41084 ft 491 kts 86°
2026-05-08 18:29 52.32177 4.73523 41109 ft 491 kts 86°
2026-05-08 18:30 52.32593 4.84684 41112 ft 491 kts 86°
2026-05-08 18:30 52.32999 4.95842 41108 ft 491 kts 86°
2026-05-08 18:31 52.33404 5.07005 41098 ft 491 kts 85°
2026-05-08 18:31 52.34208 5.18115 41095 ft 491 kts 81°
2026-05-08 18:32 52.35163 5.29197 41107 ft 491 kts 81°
2026-05-08 18:32 52.36106 5.40256 40908 ft 485 kts 82°
2026-05-08 18:33 52.36565 5.45725 40384 ft 484 kts 81°
2026-05-08 18:33 52.37020 5.51181 39872 ft 483 kts 81°
2026-05-08 18:33 52.37469 5.56615 39437 ft 480 kts 81°
2026-05-08 18:33 52.37914 5.62038 38959 ft 478 kts 81°
2026-05-08 18:34 52.38355 5.67435 38356 ft 478 kts 81°
2026-05-08 18:34 52.38792 5.72837 37726 ft 477 kts 81°
2026-05-08 18:34 52.39080 5.76412 37343 ft 476 kts 81°
2026-05-08 18:34 52.39510 5.81782 36793 ft 474 kts 81°
2026-05-08 18:35 52.39937 5.87138 36239 ft 472 kts 80°
2026-05-08 18:35 52.40360 5.92465 35700 ft 470 kts 80°
2026-05-08 18:35 52.40780 5.97776 35178 ft 468 kts 80°
2026-05-08 18:35 52.41203 6.03076 34627 ft 467 kts 80°
2026-05-08 18:36 52.41616 6.08353 34074 ft 465 kts 80°
2026-05-08 18:36 52.42025 6.13605 33433 ft 464 kts 80°
2026-05-08 18:36 52.42433 6.18861 32705 ft 464 kts 80°
2026-05-08 18:36 52.42839 6.24116 32229 ft 465 kts 81°
2026-05-08 18:37 52.43243 6.29390 32107 ft 467 kts 81°
2026-05-08 18:37 52.43645 6.34691 32109 ft 468 kts 81°
2026-05-08 18:37 52.44441 6.45298 32108 ft 469 kts 81°
2026-05-08 18:38 52.45235 6.55938 32102 ft 469 kts 81°
2026-05-08 18:38 52.45625 6.61245 31741 ft 464 kts 81°
2026-05-08 18:38 52.46011 6.66532 30620 ft 471 kts 82°
2026-05-08 18:39 52.46403 6.71916 28761 ft 477 kts 82°
2026-05-08 18:39 52.46792 6.77294 27500 ft 468 kts 82°
2026-05-08 18:39 52.47163 6.82484 27113 ft 450 kts 82°
2026-05-08 18:39 52.47523 6.87567 26880 ft 445 kts 82°
2026-05-08 18:40 52.47879 6.92604 26608 ft 443 kts 82°
2026-05-08 18:40 52.48231 6.97615 26295 ft 441 kts 82°
2026-05-08 18:40 52.48581 7.02607 25904 ft 438 kts 83°
2026-05-08 18:40 52.48926 7.07564 25487 ft 435 kts 83°
2026-05-08 18:41 52.49266 7.12479 25060 ft 431 kts 83°
2026-05-08 18:41 52.49601 7.17361 24635 ft 428 kts 83°
2026-05-08 18:41 52.49931 7.22202 24211 ft 425 kts 83°
2026-05-08 18:41 52.50258 7.27015 23784 ft 421 kts 83°
2026-05-08 18:42 52.50579 7.31782 23293 ft 418 kts 83°
2026-05-08 18:42 52.50895 7.36505 22840 ft 414 kts 83°
2026-05-08 18:42 52.51206 7.41179 22404 ft 409 kts 83°
2026-05-08 18:42 52.51514 7.45831 21976 ft 405 kts 83°
2026-05-08 18:43 52.51815 7.50412 21555 ft 401 kts 83°
2026-05-08 18:43 52.52112 7.54953 21130 ft 398 kts 83°
2026-05-08 18:43 52.52405 7.59461 20715 ft 395 kts 83°
2026-05-08 18:43 52.52693 7.63932 20309 ft 392 kts 83°
2026-05-08 18:44 52.52979 7.68382 19894 ft 389 kts 83°
2026-05-08 18:44 52.53261 7.72793 19484 ft 387 kts 83°
2026-05-08 18:44 52.53536 7.77111 19067 ft 384 kts 83°
2026-05-08 18:44 52.53812 7.81479 18660 ft 382 kts 83°
2026-05-08 18:45 52.54084 7.85809 18232 ft 380 kts 84°
2026-05-08 18:45 52.54353 7.90123 17796 ft 378 kts 84°
2026-05-08 18:45 52.54619 7.94405 17379 ft 374 kts 84°
2026-05-08 18:45 52.54881 7.98656 16976 ft 372 kts 84°
2026-05-08 18:46 52.55139 8.02873 16574 ft 369 kts 84°
2026-05-08 18:46 52.55394 8.07057 16172 ft 366 kts 84°
2026-05-08 18:46 52.55646 8.11214 15777 ft 364 kts 84°
2026-05-08 18:46 52.55895 8.15344 15376 ft 362 kts 84°
2026-05-08 18:47 52.56141 8.19457 14989 ft 359 kts 84°
2026-05-08 18:47 52.56391 8.23655 14589 ft 357 kts 84°
2026-05-08 18:47 52.56624 8.27596 14206 ft 355 kts 84°
2026-05-08 18:47 52.56862 8.31634 13755 ft 354 kts 84°
2026-05-08 18:48 52.57098 8.35672 13245 ft 354 kts 84°
2026-05-08 18:48 52.57333 8.39700 12800 ft 352 kts 84°
2026-05-08 18:48 52.57564 8.43695 12368 ft 349 kts 84°
2026-05-08 18:48 52.57792 8.47656 11963 ft 346 kts 84°
2026-05-08 18:49 52.58016 8.51576 11574 ft 342 kts 85°
2026-05-08 18:49 52.58235 8.55455 11194 ft 339 kts 84°
2026-05-08 18:49 52.58454 8.59300 10838 ft 334 kts 84°
2026-05-08 18:49 52.58667 8.63055 10456 ft 318 kts 84°
2026-05-08 18:50 52.58862 8.66515 10357 ft 294 kts 84°
2026-05-08 18:50 52.59047 8.69842 10315 ft 291 kts 85°
2026-05-08 18:50 52.59193 8.73155 10263 ft 290 kts 88°
2026-05-08 18:50 52.59133 8.76440 10110 ft 283 kts 101°
2026-05-08 18:51 52.58544 8.79513 9767 ft 281 kts 111°
2026-05-08 18:51 52.57792 8.82500 9283 ft 283 kts 113°
2026-05-08 18:51 52.57014 8.85461 8921 ft 281 kts 114°
2026-05-08 18:51 52.56237 8.88398 8573 ft 278 kts 114°
2026-05-08 18:52 52.55467 8.91309 8240 ft 276 kts 114°
2026-05-08 18:52 52.54704 8.94190 7910 ft 273 kts 114°
2026-05-08 18:52 52.53950 8.97043 7571 ft 271 kts 114°
2026-05-08 18:52 52.53201 8.99875 7230 ft 269 kts 114°
2026-05-08 18:53 52.52453 9.02698 6871 ft 269 kts 114°
2026-05-08 18:53 52.51708 9.05506 6543 ft 267 kts 114°
2026-05-08 18:53 52.50967 9.08293 6206 ft 265 kts 114°
2026-05-08 18:53 52.50229 9.11056 5859 ft 263 kts 114°
2026-05-08 18:54 52.49495 9.13797 5513 ft 262 kts 114°
2026-05-08 18:54 52.48761 9.16528 5170 ft 261 kts 114°
2026-05-08 18:54 52.48032 9.19247 4865 ft 259 kts 113°
2026-05-08 18:54 52.47331 9.21959 4522 ft 257 kts 112°
2026-05-08 18:55 52.46498 9.27596 3866 ft 254 kts 93°
2026-05-08 18:55 52.46486 9.30493 3552 ft 252 kts 90°
2026-05-08 18:55 52.46480 9.33385 3235 ft 251 kts 91°
2026-05-08 18:56 52.46430 9.36238 2982 ft 248 kts 92°
2026-05-08 18:56 52.46350 9.39074 2969 ft 249 kts 93°
2026-05-08 18:56 52.46259 9.41915 2963 ft 249 kts 93°
2026-05-08 18:56 52.46168 9.44763 2900 ft 250 kts 93°
2026-05-08 18:57 52.46079 9.47625 2624 ft 250 kts 93°
2026-05-08 18:57 52.46022 9.49513 2394 ft 250 kts 93°
2026-05-08 18:57 52.45909 9.53318 1934 ft 249 kts 93°
2026-05-08 18:57 52.45828 9.56124 1555 ft 243 kts 93°
2026-05-08 18:58 52.45747 9.58893 1265 ft 243 kts 93°
2026-05-08 18:58 52.45666 9.61721 1011 ft 270 kts 93°
2026-05-08 18:58 52.45582 9.64993 1632 ft 281 kts 93°
2026-05-08 18:58 52.45507 9.67963 2013 ft 250 kts 93°
2026-05-08 18:59 52.45434 9.70803 2079 ft 251 kts 93°
2026-05-08 18:59 52.45340 9.73725 2595 ft 254 kts 94°
2026-05-08 18:59 52.45243 9.76589 2937 ft 250 kts 94°
2026-05-08 18:59 52.45142 9.79429 2984 ft 249 kts 94°
2026-05-08 19:00 52.44946 9.82251 2967 ft 248 kts 107°
2026-05-08 19:00 52.44049 9.84642 2977 ft 250 kts 136°
2026-05-08 19:00 52.42591 9.86190 2995 ft 252 kts 151°
2026-05-08 19:00 52.41015 9.87447 2989 ft 252 kts 154°
2026-05-08 19:01 52.39370 9.88399 2976 ft 254 kts 172°
2026-05-08 19:01 52.37617 9.88028 2988 ft 258 kts 198°
2026-05-08 19:01 52.35975 9.86827 2989 ft 260 kts 209°
2026-05-08 19:01 52.34690 9.84731 2985 ft 264 kts 239°
2026-05-08 19:02 52.34127 9.81875 2997 ft 266 kts 259°
2026-05-08 19:02 52.33890 9.78866 2992 ft 266 kts 263°
2026-05-08 19:02 52.33709 9.75849 2992 ft 267 kts 264°
2026-05-08 19:02 52.33536 9.72826 2990 ft 264 kts 264°
2026-05-08 19:03 52.33372 9.69950 2973 ft 241 kts 264°
2026-05-08 19:03 52.33225 9.67344 2968 ft 219 kts 264°
2026-05-08 19:03 52.33090 9.64937 2976 ft 210 kts 264°
2026-05-08 19:03 52.32965 9.62631 3000 ft 193 kts 266°
2026-05-08 19:04 52.33049 9.60566 2994 ft 171 kts 275°
2026-05-08 19:04 52.33162 9.58748 2942 ft 153 kts 274°
2026-05-08 19:04 52.33251 9.57025 2968 ft 151 kts 274°
2026-05-08 19:04 52.33336 9.55306 2960 ft 151 kts 274°
2026-05-08 19:05 52.33421 9.53594 2960 ft 151 kts 274°
2026-05-08 19:05 52.33504 9.51888 2967 ft 151 kts 274°
2026-05-08 19:05 52.33588 9.50177 2965 ft 150 kts 274°
2026-05-08 19:05 52.33672 9.48469 2964 ft 150 kts 274°
2026-05-08 19:06 52.33758 9.46751 2963 ft 150 kts 274°
2026-05-08 19:06 52.33843 9.45045 2963 ft 150 kts 274°
2026-05-08 19:06 52.33928 9.43337 2964 ft 150 kts 274°
2026-05-08 19:06 52.34210 9.41727 2969 ft 151 kts 302°
2026-05-08 19:07 52.34862 9.40353 2971 ft 151 kts 312°
2026-05-08 19:07 52.35559 9.39076 2966 ft 150 kts 313°
2026-05-08 19:07 52.36263 9.37811 2963 ft 150 kts 313°
2026-05-08 19:07 52.36959 9.36567 2969 ft 150 kts 313°
2026-05-08 19:08 52.37761 9.35519 2960 ft 148 kts 340°
2026-05-08 19:08 52.38725 9.34941 2971 ft 147 kts 343°
2026-05-08 19:08 52.39695 9.34391 2958 ft 148 kts 344°
2026-05-08 19:08 52.40692 9.34096 2964 ft 145 kts 360°
2026-05-08 19:09 52.41711 9.34062 2969 ft 144 kts
2026-05-08 19:09 52.42712 9.34116 2960 ft 143 kts 17°
2026-05-08 19:09 52.43618 9.34713 2968 ft 140 kts 31°
2026-05-08 19:09 52.44467 9.35493 2968 ft 140 kts 33°
2026-05-08 19:10 52.45304 9.36296 2961 ft 139 kts 33°
2026-05-08 19:10 52.46063 9.37237 2948 ft 136 kts 65°
2026-05-08 19:10 52.46271 9.38721 2986 ft 138 kts 88°
2026-05-08 19:10 52.46279 9.40322 2972 ft 139 kts 91°
2026-05-08 19:11 52.46252 9.41906 2970 ft 139 kts 92°
2026-05-08 19:11 52.46211 9.43491 2964 ft 139 kts 93°
2026-05-08 19:11 52.46165 9.45053 2921 ft 139 kts 93°
2026-05-08 19:11 52.46116 9.46641 2733 ft 138 kts 94°
2026-05-08 19:12 52.46067 9.48216 2548 ft 138 kts 94°
2026-05-08 19:12 52.46018 9.49787 2363 ft 138 kts 94°
2026-05-08 19:12 52.45970 9.51354 2170 ft 137 kts 94°
2026-05-08 19:12 52.45923 9.52920 1978 ft 137 kts 94°
2026-05-08 19:13 52.45876 9.54477 1792 ft 136 kts 94°
2026-05-08 19:13 52.45831 9.56033 1606 ft 136 kts 94°
2026-05-08 19:13 52.45785 9.57583 1444 ft 136 kts 94°
2026-05-08 19:13 52.45741 9.59132 1260 ft 135 kts 94°
2026-05-08 19:14 52.45697 9.60674 1066 ft 135 kts 94°
2026-05-08 19:14 52.45653 9.62214 864 ft 135 kts 94°
2026-05-08 19:14 52.45607 9.63751 702 ft 135 kts 94°
2026-05-08 19:14 52.45557 9.65282 488 ft 133 kts 93°
2026-05-08 19:15 52.45518 9.66799 328 ft 133 kts 94°
2026-05-08 19:15 52.45484 9.68292 193 ft 120 kts 91°
2026-05-08 19:15 52.45456 9.69219 193 ft 44 kts 92°
2026-05-08 19:15 52.45447 9.69552 198 ft 28 kts 92°
2026-05-08 19:16 52.45437 9.69890 196 ft 31 kts 92°
2026-05-08 19:16 52.45435 9.69965 197 ft 31 kts 93°
2026-05-08 19:16 52.45434 9.70001 197 ft 31 kts 93°
2026-05-08 19:16 52.45422 9.70374 196 ft 33 kts 93°
2026-05-08 19:17 52.45415 9.70615 195 ft 0 kts 93°
2026-05-08 19:17 52.45415 9.70626 195 ft 1 kts 85°
2026-05-08 19:17 52.45422 9.70639 199 ft 3 kts 39°
2026-05-08 19:17 52.45484 9.70667 196 ft 16 kts
2026-05-08 19:18 52.45553 9.70670 205 ft 12 kts 342°
2026-05-08 19:18 52.45579 9.70605 199 ft 0 kts 262°
2026-05-08 19:18 52.45578 9.70580 201 ft 7 kts 271°
2026-05-08 19:18 52.45587 9.70325 205 ft 33 kts 274°
2026-05-08 19:19 52.45600 9.69966 199 ft 22 kts 272°
2026-05-08 19:19 52.45606 9.69690 197 ft 26 kts 272°
2026-05-08 19:19 52.45614 9.69403 202 ft 20 kts 273°
2026-05-08 19:19 52.45622 9.69189 202 ft 11 kts 278°
2026-05-08 19:20 52.45677 9.69151 207 ft 12 kts 357°
2026-05-08 19:20 52.45742 9.69135 205 ft 16 kts 337°
2026-05-08 19:20 52.45896 9.68952 202 ft 14 kts 324°
2026-05-08 19:20 52.45904 9.68942 201 ft 0 kts 324°
2026-05-08 19:21 52.45965 9.68868 202 ft 22 kts 323°
2026-05-08 19:21 52.46098 9.68706 197 ft 17 kts 323°
2026-05-08 19:21 52.46110 9.68690 203 ft 0 kts 322°
2026-05-08 19:21 52.46149 9.68640 202 ft 14 kts 322°
2026-05-08 19:22 52.46220 9.68675 202 ft 13 kts 83°
2026-05-08 19:22 52.46198 9.68724 197 ft 3 kts 148°
2026-05-08 19:22 52.46145 9.68789 196 ft 22 kts 143°
2026-05-08 19:22 52.45963 9.69016 204 ft 27 kts 142°
2026-05-08 19:23 52.45860 9.69108 200 ft 12 kts 198°
2026-05-08 19:23 52.45791 9.68981 197 ft 17 kts 237°
2026-05-08 19:23 52.45780 9.68832 200 ft 15 kts 271°
2026-05-08 19:23 52.45782 9.68780 200 ft 2 kts 274°
2026-05-08 19:24 52.45782 9.68779 200 ft 0 kts 274°
2026-05-08 19:24 52.45782 9.68778 200 ft 0 kts 274°
2026-05-08 19:24 52.45786 9.68759 200 ft 5 kts 289°
2026-05-08 19:24 52.45822 9.68731 197 ft 8 kts
2026-05-08 19:25 52.45837 9.68733 201 ft 3 kts
2026-05-08 19:25 52.45843 9.68734 203 ft 0 kts